ASX714 KLGA-KCLT

Flight info

Callsign ASX714
Flight time N/A
Altitude 32000
Route BIGGY Q75 GVE AIROW CHSLY6
Aircraft A320/M-SDE3FGHIRWY/LB1

Departure

Time 2026-05-05 17:59
Airport LaGuardia Airport (KLGA)

Arrival

Time N/A
Airport Charlotte Douglas International Airport (KCLT)
Time Latitude Longitude Altitude Speed Heading
2026-05-05 17:58 40.79797 -73.82024 3632 ft 220 kts 259°
2026-05-05 17:59 40.79298 -73.84015 3981 ft 239 kts 245°
2026-05-05 17:59 40.78635 -73.86060 4761 ft 244 kts 245°
2026-05-05 17:59 40.77960 -73.88117 5681 ft 244 kts 245°
2026-05-05 17:59 40.77289 -73.90167 6597 ft 243 kts 245°
2026-05-05 18:00 40.76622 -73.92211 7456 ft 243 kts 245°
2026-05-05 18:00 40.75965 -73.94231 8332 ft 242 kts 246°
2026-05-05 18:00 40.75301 -73.96277 9258 ft 242 kts 246°
2026-05-05 18:00 40.74639 -73.98317 10089 ft 242 kts 246°
2026-05-05 18:01 40.73952 -74.00425 10456 ft 261 kts 247°
2026-05-05 18:01 40.73202 -74.02725 10636 ft 284 kts 246°
2026-05-05 18:01 40.72390 -74.05217 10767 ft 307 kts 246°
2026-05-05 18:01 40.71521 -74.07890 10843 ft 327 kts 247°
2026-05-05 18:02 40.70601 -74.10717 11068 ft 342 kts 247°
2026-05-05 18:02 40.69655 -74.13621 11564 ft 348 kts 247°
2026-05-05 18:02 40.68693 -74.16568 12134 ft 352 kts 247°
2026-05-05 18:02 40.67717 -74.19557 12679 ft 357 kts 247°
2026-05-05 18:03 40.66730 -74.22577 13242 ft 361 kts 248°
2026-05-05 18:03 40.65741 -74.25599 13796 ft 365 kts 248°
2026-05-05 18:03 40.64719 -74.28723 14278 ft 369 kts 248°
2026-05-05 18:03 40.63708 -74.31807 14741 ft 373 kts 248°
2026-05-05 18:04 40.62672 -74.34963 15213 ft 378 kts 248°
2026-05-05 18:04 40.61623 -74.38155 15662 ft 382 kts 248°
2026-05-05 18:04 40.60562 -74.41372 16117 ft 385 kts 248°
2026-05-05 18:04 40.59489 -74.44623 16551 ft 389 kts 248°
2026-05-05 18:05 40.58404 -74.47906 16952 ft 393 kts 248°
2026-05-05 18:05 40.57309 -74.51213 17371 ft 397 kts 248°
2026-05-05 18:05 40.56200 -74.54558 17778 ft 400 kts 248°
2026-05-05 18:05 40.55081 -74.57941 18174 ft 404 kts 248°
2026-05-05 18:06 40.53956 -74.61341 18518 ft 407 kts 248°
2026-05-05 18:06 40.53207 -74.63604 18748 ft 409 kts 248°
2026-05-05 18:06 40.51679 -74.68208 19196 ft 412 kts 248°
2026-05-05 18:06 40.50527 -74.71672 19531 ft 415 kts 248°
2026-05-05 18:07 40.49364 -74.75162 19864 ft 417 kts 248°
2026-05-05 18:07 40.48196 -74.78663 20184 ft 420 kts 248°
2026-05-05 18:07 40.47020 -74.82185 20493 ft 422 kts 248°
2026-05-05 18:07 40.45835 -74.85721 20809 ft 424 kts 248°
2026-05-05 18:08 40.44640 -74.89276 21105 ft 426 kts 248°
2026-05-05 18:08 40.43440 -74.92843 21386 ft 428 kts 248°
2026-05-05 18:08 40.42132 -74.96372 21669 ft 432 kts 242°
2026-05-05 18:08 40.40406 -74.99620 21946 ft 437 kts 232°
2026-05-05 18:09 40.38396 -75.02643 22221 ft 440 kts 231°
2026-05-05 18:09 40.36371 -75.05656 22465 ft 442 kts 231°
2026-05-05 18:09 40.34355 -75.08651 22687 ft 445 kts 231°
2026-05-05 18:09 40.32301 -75.11700 22913 ft 447 kts 231°
2026-05-05 18:10 40.30239 -75.14763 23145 ft 449 kts 231°
2026-05-05 18:10 40.28167 -75.17847 23374 ft 451 kts 231°
2026-05-05 18:10 40.26092 -75.20938 23568 ft 453 kts 231°
2026-05-05 18:10 40.24004 -75.24048 23777 ft 455 kts 231°
2026-05-05 18:11 40.21914 -75.27159 23968 ft 456 kts 231°
2026-05-05 18:11 40.19817 -75.30274 24162 ft 457 kts 231°
2026-05-05 18:11 40.17715 -75.33389 24359 ft 457 kts 231°
2026-05-05 18:11 40.15617 -75.36490 24593 ft 457 kts 231°
2026-05-05 18:12 40.13509 -75.39600 24841 ft 456 kts 231°
2026-05-05 18:12 40.11405 -75.42701 25109 ft 455 kts 231°
2026-05-05 18:12 40.09337 -75.45749 25422 ft 452 kts 231°
2026-05-05 18:12 40.07254 -75.48821 25734 ft 450 kts 232°
2026-05-05 18:13 40.05179 -75.51879 26028 ft 449 kts 232°
2026-05-05 18:13 40.03105 -75.54929 26301 ft 449 kts 232°
2026-05-05 18:13 40.01032 -75.57978 26574 ft 448 kts 232°
2026-05-05 18:13 39.98957 -75.61022 26794 ft 449 kts 232°
2026-05-05 18:14 39.96880 -75.64064 27017 ft 450 kts 232°
2026-05-05 18:14 39.94801 -75.67106 27283 ft 449 kts 232°
2026-05-05 18:14 39.92722 -75.70146 27561 ft 449 kts 232°
2026-05-05 18:14 39.90644 -75.73181 27852 ft 448 kts 232°
2026-05-05 18:15 39.88600 -75.76170 28149 ft 447 kts 232°
2026-05-05 18:15 39.86533 -75.79190 28445 ft 446 kts 232°
2026-05-05 18:15 39.84469 -75.82199 28764 ft 445 kts 232°
2026-05-05 18:15 39.82410 -75.85196 29071 ft 444 kts 232°
2026-05-05 18:16 39.80351 -75.88188 29367 ft 443 kts 232°
2026-05-05 18:16 39.78289 -75.91182 29667 ft 443 kts 232°
2026-05-05 18:16 39.76236 -75.94164 29958 ft 443 kts 232°
2026-05-05 18:16 39.74182 -75.97142 30223 ft 442 kts 232°
2026-05-05 18:17 39.72135 -76.00113 30474 ft 442 kts 232°
2026-05-05 18:17 39.70084 -76.03090 30721 ft 441 kts 232°
2026-05-05 18:17 39.68033 -76.06058 30968 ft 441 kts 233°
2026-05-05 18:17 39.65975 -76.09034 31210 ft 441 kts 233°
2026-05-05 18:18 39.63922 -76.11996 31469 ft 441 kts 233°
2026-05-05 18:18 39.61872 -76.14947 31678 ft 441 kts 233°
2026-05-05 18:18 39.59844 -76.17869 31875 ft 442 kts 233°
2026-05-05 18:19 39.55813 -76.23944 31934 ft 447 kts 235°
2026-05-05 18:19 39.51845 -76.30154 31928 ft 448 kts 236°
2026-05-05 18:20 39.47851 -76.36364 31927 ft 448 kts 235°
2026-05-05 18:20 39.43496 -76.42214 31934 ft 454 kts 229°
2026-05-05 18:21 39.38940 -76.47891 31932 ft 454 kts 229°
2026-05-05 18:21 39.34423 -76.53536 31979 ft 454 kts 230°
2026-05-05 18:22 39.29895 -76.59202 31941 ft 453 kts 230°
2026-05-05 18:22 39.25354 -76.64865 31927 ft 453 kts 229°
2026-05-05 18:23 39.20809 -76.70515 31918 ft 453 kts 229°
2026-05-05 18:23 39.16285 -76.76123 31913 ft 454 kts 229°
2026-05-05 18:24 39.11739 -76.81763 31956 ft 453 kts 229°
2026-05-05 18:24 39.07188 -76.87393 31970 ft 453 kts 230°
2026-05-05 18:25 39.02639 -76.92999 31927 ft 453 kts 229°
2026-05-05 18:25 38.98085 -76.98599 31929 ft 453 kts 229°
2026-05-05 18:26 38.93527 -77.04203 31929 ft 452 kts 229°
2026-05-05 18:26 38.89009 -77.09755 31931 ft 452 kts 229°
2026-05-05 18:27 38.84461 -77.15336 31915 ft 453 kts 229°
2026-05-05 18:27 38.79867 -77.20949 31901 ft 453 kts 229°
2026-05-05 18:28 38.73041 -77.29251 31924 ft 452 kts 230°
2026-05-05 18:28 38.68482 -77.34793 31936 ft 452 kts 230°
2026-05-05 18:29 38.63925 -77.40328 31943 ft 451 kts 230°
2026-05-05 18:29 38.59367 -77.45871 31941 ft 452 kts 230°
2026-05-05 18:30 38.54796 -77.51412 31949 ft 453 kts 230°
2026-05-05 18:30 38.50208 -77.56947 31955 ft 453 kts 229°
2026-05-05 18:31 38.45621 -77.62464 31958 ft 452 kts 230°
2026-05-05 18:31 38.41010 -77.67901 31965 ft 452 kts 228°
2026-05-05 18:32 38.36296 -77.73131 31966 ft 452 kts 227°
2026-05-05 18:32 38.31519 -77.78348 31967 ft 452 kts 227°
2026-05-05 18:33 38.26769 -77.83577 31961 ft 451 kts 227°
2026-05-05 18:33 38.22038 -77.88824 31940 ft 451 kts 227°
2026-05-05 18:34 38.17295 -77.94082 31937 ft 451 kts 227°
2026-05-05 18:34 38.12561 -77.99316 31978 ft 451 kts 228°
2026-05-05 18:35 38.07827 -78.04526 31988 ft 450 kts 228°
2026-05-05 18:35 38.03094 -78.09728 31973 ft 450 kts 228°
2026-05-05 18:36 37.98387 -78.14901 31970 ft 451 kts 228°
2026-05-05 18:36 37.93637 -78.20106 31951 ft 450 kts 228°
2026-05-05 18:37 37.88890 -78.25293 31946 ft 451 kts 228°
2026-05-05 18:37 37.84139 -78.30485 31948 ft 451 kts 228°
2026-05-05 18:38 37.79411 -78.35639 31959 ft 451 kts 228°
2026-05-05 18:38 37.74664 -78.40807 31960 ft 451 kts 228°
2026-05-05 18:39 37.69907 -78.45971 31966 ft 451 kts 227°
2026-05-05 18:39 37.65145 -78.51132 31966 ft 451 kts 228°
2026-05-05 18:40 37.60387 -78.56283 31955 ft 451 kts 227°
2026-05-05 18:40 37.55639 -78.61408 31957 ft 452 kts 227°
2026-05-05 18:41 37.50866 -78.66560 31967 ft 452 kts 227°
2026-05-05 18:41 37.46080 -78.71711 31985 ft 451 kts 227°
2026-05-05 18:42 37.42089 -78.76002 31999 ft 450 kts 227°
2026-05-05 18:42 37.37350 -78.81094 31995 ft 450 kts 227°
2026-05-05 18:43 37.31803 -78.87032 31997 ft 450 kts 227°
2026-05-05 18:43 37.27802 -78.91303 32003 ft 450 kts 227°
2026-05-05 18:44 37.23030 -78.96393 31998 ft 450 kts 227°
2026-05-05 18:44 37.18290 -79.01454 31975 ft 451 kts 227°
2026-05-05 18:45 37.13498 -79.06549 31977 ft 452 kts 227°
2026-05-05 18:45 37.08703 -79.11635 31993 ft 451 kts 227°
2026-05-05 18:46 37.03908 -79.16723 32001 ft 451 kts 227°
2026-05-05 18:46 36.99158 -79.21757 32005 ft 451 kts 227°
2026-05-05 18:47 36.94369 -79.26824 31988 ft 451 kts 227°
2026-05-05 18:47 36.89582 -79.31889 32006 ft 451 kts 227°
2026-05-05 18:48 36.84780 -79.36941 32016 ft 452 kts 227°
2026-05-05 18:48 36.79966 -79.41992 32018 ft 452 kts 227°
2026-05-05 18:49 36.75151 -79.47037 32012 ft 451 kts 227°
2026-05-05 18:49 36.70343 -79.52070 32011 ft 451 kts 228°
2026-05-05 18:50 36.65541 -79.57103 32026 ft 451 kts 227°
2026-05-05 18:50 36.60756 -79.62091 32024 ft 451 kts 227°
2026-05-05 18:51 36.55944 -79.67098 32007 ft 451 kts 227°
2026-05-05 18:51 36.51137 -79.72114 31927 ft 450 kts 227°
2026-05-05 18:52 36.48735 -79.74610 31062 ft 450 kts 226°
2026-05-05 18:52 36.46327 -79.77112 30071 ft 453 kts 225°
2026-05-05 18:52 36.43903 -79.79630 28930 ft 455 kts 225°
2026-05-05 18:52 36.41471 -79.82154 27808 ft 455 kts 224°
2026-05-05 18:53 36.39037 -79.84675 26667 ft 457 kts 224°
2026-05-05 18:53 36.36593 -79.87205 25485 ft 459 kts 223°
2026-05-05 18:53 36.34137 -79.89746 24653 ft 461 kts 222°
2026-05-05 18:53 36.31661 -79.92308 24291 ft 464 kts 222°
2026-05-05 18:54 36.29171 -79.94879 24099 ft 464 kts 222°
2026-05-05 18:54 36.26696 -79.97429 23671 ft 458 kts 222°
2026-05-05 18:54 36.24285 -79.99908 22730 ft 453 kts 221°
2026-05-05 18:54 36.21879 -80.02383 21884 ft 447 kts 221°
2026-05-05 18:55 36.19502 -80.04825 21085 ft 442 kts 221°
2026-05-05 18:55 36.17146 -80.07246 20281 ft 437 kts 221°
2026-05-05 18:55 36.14825 -80.09637 19552 ft 432 kts 221°
2026-05-05 18:55 36.12528 -80.12001 18871 ft 427 kts 221°
2026-05-05 18:56 36.10255 -80.14339 18174 ft 423 kts 221°
2026-05-05 18:56 36.08002 -80.16651 17423 ft 418 kts 221°
2026-05-05 18:56 36.05778 -80.18927 16732 ft 413 kts 221°
2026-05-05 18:56 36.03572 -80.21178 16162 ft 409 kts 220°
2026-05-05 18:57 36.01388 -80.23409 15956 ft 403 kts 221°
2026-05-05 18:57 35.99268 -80.25575 15798 ft 388 kts 221°
2026-05-05 18:57 35.97234 -80.27654 15774 ft 372 kts 221°
2026-05-05 18:57 35.95186 -80.29745 15794 ft 391 kts 221°
2026-05-05 18:58 35.93062 -80.31914 15784 ft 399 kts 220°
2026-05-05 18:58 35.90945 -80.34074 15782 ft 401 kts 220°
2026-05-05 18:58 35.88795 -80.36264 15780 ft 401 kts 220°
2026-05-05 18:58 35.86638 -80.38456 15792 ft 401 kts 220°
2026-05-05 18:59 35.84482 -80.40645 15809 ft 402 kts 220°
2026-05-05 18:59 35.82312 -80.42836 15807 ft 402 kts 220°
2026-05-05 18:59 35.80118 -80.44992 15805 ft 402 kts 219°
2026-05-05 18:59 35.77905 -80.47121 15803 ft 402 kts 219°
2026-05-05 19:00 35.75719 -80.49201 15801 ft 403 kts 218°
2026-05-05 19:00 35.73288 -80.50909 15804 ft 405 kts 205°
2026-05-05 19:00 35.70700 -80.52301 15802 ft 405 kts 205°
2026-05-05 19:00 35.68066 -80.53529 15729 ft 404 kts 199°
2026-05-05 19:01 35.65382 -80.54476 15161 ft 400 kts 197°
2026-05-05 19:01 35.62726 -80.55310 14224 ft 389 kts 195°
2026-05-05 19:01 35.60124 -80.56100 13072 ft 380 kts 199°
2026-05-05 19:01 35.57897 -80.57641 12417 ft 357 kts 225°
2026-05-05 19:02 35.56624 -80.60078 12262 ft 328 kts 250°
2026-05-05 19:02 35.56221 -80.62735 12133 ft 306 kts 264°
2026-05-05 19:02 35.56226 -80.65334 11226 ft 309 kts 270°
2026-05-05 19:02 35.56396 -80.67893 11002 ft 290 kts 271°
2026-05-05 19:03 35.56557 -80.70269 10636 ft 277 kts 270°
2026-05-05 19:03 35.56663 -80.72608 10097 ft 272 kts 268°
2026-05-05 19:03 35.56712 -80.74915 9499 ft 268 kts 266°
2026-05-05 19:03 35.56716 -80.77160 8969 ft 260 kts 263°
2026-05-05 19:04 35.56261 -80.79266 8241 ft 254 kts 238°
2026-05-05 19:04 35.55362 -80.81138 7502 ft 255 kts 240°
2026-05-05 19:04 35.54847 -80.83219 6829 ft 258 kts 259°
2026-05-05 19:04 35.54657 -80.85421 6163 ft 260 kts 261°
2026-05-05 19:05 35.54517 -80.87621 5551 ft 257 kts 262°
2026-05-05 19:05 35.54385 -80.89802 4934 ft 256 kts 262°
2026-05-05 19:05 35.54250 -80.91973 4290 ft 254 kts 262°
2026-05-05 19:05 35.53893 -80.94033 4033 ft 245 kts 239°
2026-05-05 19:06 35.52777 -80.95566 3978 ft 243 kts 210°